Wheeler AAF, HI

11:59 PM HST on June 23, 2018 (GMT -1000)
Wheeler Army Air Field

Weather History for PHHI - September, 2017

Change the Weather History Date:

Thursday, September 14, 2017

  Actual Average Record
Temperature  
Mean Temperature 76 °F -  
Max Temperature 84 °F 82 °F 86 °F (2004)
Min Temperature 68 °F 68 °F 63 °F (2008)
Cooling Degree Days 11    
Growing Degree Days 26 (Base 50)    
Moisture  
Dew Point 69 °F    
Average Humidity 78    
Maximum Humidity 93    
Minimum Humidity 54    
Precipitation  
Precipitation 0.00 in - - ()
Sea Level Pressure  
Sea Level Pressure 29.89 in    
Wind  
Wind Speed 0 mph (North)    
Max Wind Speed 0 mph    
Max Gust Speed -    
Visibility 10 miles    
Events Rain    
Averages and records for this station are not official NWS values.
T = Trace of Precipitation, MM = Missing Value Source: NWS Daily Summary

Daily Weather History Graph

Daily Weather History Graph

Search for Another Location

Airport or City:

Astronomy

Sep. 14, 2017 Rise Set
Actual Time 6:19 AM HST 6:35 PM HST
Civil Twilight 5:56 AM HST 6:57 PM HST
Nautical Twilight 5:30 AM HST 7:23 PM HST
Astronomical Twilight 5:04 AM HST 7:50 PM HST
Moon 12:58 AM HST (9/14) 2:31 PM HST (9/14)
Length of Visible Light 13h 01m
Length of Day
12h 16m
Waning Crescent, 32% of the Moon is Illuminated
Sep 14
Waning Crescent
Sep 19
New
Sep 27
First Quarter
Oct 5
Full
Oct 12
Last Quarter

Hourly Weather History & Observations

Time (HST) Temp. Heat Index Dew Point Humidity Pressure Visibility Wind Dir Wind Speed Gust Speed Precip Events Conditions
12:58 AM 71.1 °F - 67.3 °F 88% 29.90 in 10.0 mi Calm Calm - N/A   Clear
1:58 AM 70.3 °F - 67.3 °F 90% 29.88 in 10.0 mi Calm Calm - N/A   Clear
2:59 AM 68.5 °F - 66.6 °F 93% 29.88 in 10.0 mi Calm Calm - N/A   Clear
3:58 AM 69.3 °F - 66.0 °F 89% 29.87 in 10.0 mi Calm Calm - N/A   Clear
4:58 AM 69.1 °F - 65.8 °F 89% 29.87 in 10.0 mi Calm Calm - N/A   Clear
5:58 AM 69.1 °F - 65.8 °F 89% 29.88 in 10.0 mi Calm Calm - N/A   Clear
6:58 AM 69.6 °F - 65.5 °F 87% 29.91 in 10.0 mi Calm Calm - N/A   Clear
7:58 AM 75.4 °F - 67.6 °F 77% 29.91 in 10.0 mi Calm Calm - N/A   Clear
8:58 AM 80.6 °F 83.8 °F 69.4 °F 69% 29.92 in 10.0 mi Calm Calm - N/A   Clear
9:58 AM 83.5 °F 86.2 °F 67.5 °F 58% 29.93 in 10.0 mi Calm Calm - N/A   Clear
10:58 AM 84.4 °F 86.6 °F 65.8 °F 54% 29.91 in 10.0 mi Calm Calm - N/A   Clear
11:58 AM 83.5 °F 86.7 °F 68.2 °F 60% 29.91 in 10.0 mi Calm Calm - N/A   Overcast
12:58 PM 82.2 °F 86.4 °F 70.7 °F 68% 29.89 in 10.0 mi Calm Calm - N/A   Overcast
1:07 PM 82.4 °F 87.2 °F 71.6 °F 70% 29.89 in 10.0 mi Calm Calm - N/A   Light Drizzle
1:16 PM 80.6 °F 84.6 °F 71.6 °F 74% 29.88 in 10.0 mi Calm Calm - N/A   Overcast
1:58 PM 82.4 °F 86.7 °F 70.7 °F 68% 29.87 in 10.0 mi Calm Calm - 0.00 in   Mostly Cloudy
2:47 PM 80.6 °F 83.9 °F 69.8 °F 70% 29.87 in 10.0 mi Calm Calm - N/A Rain Light Rain
2:58 PM 80.6 °F 83.5 °F 68.9 °F 67% 29.87 in 10.0 mi Calm Calm - 0.00 in   Light Drizzle
2:59 PM 80.6 °F 83.2 °F 68.0 °F 65% 29.87 in 10.0 mi Calm Calm - N/A   Overcast
3:02 PM 80.6 °F 83.9 °F 69.8 °F 70% 29.87 in 10.0 mi Calm Calm - N/A   Light Drizzle
3:18 PM 78.8 °F - 69.8 °F 74% 29.87 in 10.0 mi Calm Calm - N/A   Overcast
3:24 PM 78.8 °F - 69.8 °F 74% 29.87 in 10.0 mi Calm Calm - N/A Rain Light Rain
3:58 PM 77.5 °F - 72.0 °F 83% 29.86 in 10.0 mi Calm Calm - 0.00 in   Light Drizzle
4:02 PM 77.0 °F - 71.6 °F 83% 29.86 in 10.0 mi Calm Calm - N/A   Overcast
4:19 PM 77.0 °F - 73.4 °F 89% 29.86 in 10.0 mi Calm Calm - N/A   Light Drizzle
4:28 PM 77.0 °F - 71.6 °F 83% 29.86 in 10.0 mi Calm Calm - N/A   Overcast
4:58 PM 76.3 °F - 70.7 °F 83% 29.86 in 10.0 mi Calm Calm - 0.00 in   Overcast
5:58 PM 77.5 °F - 71.4 °F 81% 29.88 in 10.0 mi Calm Calm - N/A   Overcast
6:58 PM 77.0 °F - 71.1 °F 82% 29.89 in 10.0 mi Calm Calm - N/A   Mostly Cloudy
7:58 PM 76.3 °F - 71.4 °F 85% 29.91 in 10.0 mi Calm Calm - N/A   Mostly Cloudy
8:58 PM 75.2 °F - 68.7 °F 80% 29.91 in 10.0 mi Calm Calm - N/A   Overcast
9:58 PM 73.8 °F - 69.4 °F 86% 29.94 in 10.0 mi Calm Calm - N/A   Clear
10:58 PM 71.4 °F - 68.4 °F 90% 29.93 in 10.0 mi Calm Calm - N/A   Clear
11:58 PM 71.6 °F - 69.3 °F 92% 29.92 in 10.0 mi Calm Calm - N/A   Clear